| time (UTC) | temp F | wind direction | speed MPH | gust MPH | rain 1hr in | rain 24hr in | rain mn in | humidity % | barometer mb |
| 20260502211531 | 50 | 200 | 1.0 | 0.0 | 0.00 | 0.00 | 0.00 | 64 | 1002.1 |
| 20260502211037 | 50 | 200 | 0.0 | 0.0 | 0.00 | 0.00 | 0.00 | 65 | 1002.0 |
| 20260502210546 | 50 | 200 | 0.0 | 0.0 | 0.00 | 0.00 | 0.00 | 64 | 1002.0 |
| 20260502210027 | 50 | 200 | 0.0 | 0.0 | 0.00 | 0.00 | 0.00 | 64 | 1002.0 |
| 20260502205537 | 50 | 200 | 0.0 | 0.0 | 0.00 | 0.00 | 0.00 | 64 | 1001.9 |
| 20260502205039 | 50 | 200 | 0.0 | 0.0 | 0.00 | 0.00 | 0.00 | 63 | 1001.9 |
| 20260502204529 | 50 | 200 | 0.0 | 0.0 | 0.00 | 0.00 | 0.00 | 63 | 1001.9 |
| 20260502204036 | 50 | 200 | 0.0 | 0.0 | 0.00 | 0.00 | 0.00 | 63 | 1001.9 |
| 20260502203524 | 50 | 200 | 0.0 | 0.0 | 0.00 | 0.00 | 0.00 | 63 | 1001.9 |
| 20260502203036 | 50 | 200 | 0.0 | 0.0 | 0.00 | 0.00 | 0.00 | 62 | 1001.9 |
| 20260502202521 | 51 | 200 | 0.0 | 0.0 | 0.00 | 0.00 | 0.00 | 63 | 1001.9 |
| 20260502202038 | 51 | 200 | 0.0 | 0.0 | 0.00 | 0.00 | 0.00 | 62 | 1001.9 |
| 20260502201525 | 51 | 200 | 0.0 | 0.0 | 0.00 | 0.00 | 0.00 | 61 | 1001.9 |
| 20260502201036 | 51 | 200 | 0.0 | 0.0 | 0.00 | 0.00 | 0.00 | 62 | 1001.9 |
| 20260502200544 | 51 | 200 | 0.0 | 0.0 | 0.00 | 0.00 | 0.00 | 61 | 1001.9 |
| 20260502200040 | 51 | 200 | 0.0 | 0.0 | 0.00 | 0.00 | 0.00 | 63 | 1001.9 |
| 20260502195522 | 51 | 200 | 0.0 | 0.0 | 0.00 | 0.00 | 0.00 | 62 | 1001.9 |
| 20260502195028 | 51 | 200 | 0.0 | 0.0 | 0.00 | 0.00 | 0.00 | 62 | 1001.9 |
| 20260502194543 | 51 | 200 | 0.0 | 0.0 | 0.00 | 0.00 | 0.00 | 62 | 1001.9 |
| 20260502194104 | 51 | 200 | 0.0 | 0.0 | 0.00 | 0.00 | 0.00 | 62 | 1001.9 |
| 20260502193530 | 51 | 200 | 0.0 | 0.0 | 0.00 | 0.00 | 0.00 | 62 | 1001.9 |
| 20260502193051 | 51 | 200 | 0.0 | 0.0 | 0.00 | 0.00 | 0.00 | 62 | 1001.9 |
| 20260502192537 | 51 | 200 | 0.0 | 0.0 | 0.00 | 0.00 | 0.00 | 62 | 1002.1 |
| 20260502192026 | 51 | 200 | 0.0 | 0.0 | 0.00 | 0.00 | 0.00 | 62 | 1002.1 |
| 20260502191535 | 52 | 200 | 0.0 | 0.0 | 0.00 | 0.00 | 0.00 | 62 | 1002.1 |
| 20260502191023 | 52 | 200 | 0.0 | 0.0 | 0.00 | 0.00 | 0.00 | 62 | 1002.0 |
| 20260502190530 | 52 | 200 | 0.0 | 0.0 | 0.00 | 0.00 | 0.00 | 62 | 1002.0 |
| 20260502190050 | 52 | 200 | 0.0 | 0.0 | 0.00 | 0.00 | 0.00 | 61 | 1002.0 |
| 20260502185535 | 52 | 200 | 0.0 | 0.0 | 0.00 | 0.00 | 0.00 | 62 | 1002.0 |
| 20260502185022 | 52 | 200 | 0.0 | 0.0 | 0.00 | 0.00 | 0.00 | 61 | 1002.0 |
| 20260502184531 | 53 | 200 | 0.0 | 0.0 | 0.00 | 0.00 | 0.00 | 62 | 1002.0 |
| 20260502184048 | 53 | 200 | 0.0 | 0.0 | 0.00 | 0.00 | 0.00 | 62 | 1002.0 |
| 20260502183532 | 53 | 200 | 0.0 | 0.0 | 0.00 | 0.00 | 0.00 | 61 | 1002.0 |
| 20260502183039 | 53 | 199 | 1.0 | 0.0 | 0.00 | 0.00 | 0.00 | 62 | 1002.0 |
| 20260502182530 | 53 | 199 | 1.0 | 0.0 | 0.00 | 0.00 | 0.00 | 60 | 1002.1 |
| 20260502182036 | 54 | 199 | 1.0 | 0.0 | 0.00 | 0.00 | 0.00 | 61 | 1002.1 |
| 20260502181530 | 54 | 199 | 1.0 | 0.0 | 0.00 | 0.00 | 0.00 | 60 | 1002.1 |
| 20260502181033 | 54 | 199 | 1.0 | 0.0 | 0.00 | 0.00 | 0.00 | 60 | 1002.0 |
| 20260502180538 | 54 | 199 | 1.0 | 0.0 | 0.00 | 0.00 | 0.00 | 59 | 1002.0 |
| 20260502164030 | 57 | 226 | 0.0 | 0.0 | 0.00 | 0.00 | 0.00 | 48 | 1002.0 |
| 20260502163539 | 57 | 226 | 1.0 | 0.0 | 0.00 | 0.00 | 0.00 | 48 | 1002.0 |
| 20260502163025 | 58 | 226 | 1.0 | 0.0 | 0.00 | 0.00 | 0.00 | 48 | 1002.0 |
| 20260502162530 | 58 | 223 | 1.0 | 0.0 | 0.00 | 0.00 | 0.00 | 47 | 1002.2 |
| 20260502162042 | 58 | 223 | 1.0 | 0.0 | 0.00 | 0.00 | 0.00 | 45 | 1002.2 |
| 20260502161621 | 58 | 0.0 | 0.0 | 0.00 | 0.00 | 0.00 | 48 | 1002.2 | |
| 20260502161042 | 0 | 0.0 | 0.0 | 0.00 | 0.00 | 0.00 | 1002.2 | ||
| 20260502160531 | 0 | 0.0 | 0.0 | 0.00 | 0.00 | 0.00 | 1002.2 | ||
| 20260502152021 | 0 | 0.0 | 0.0 | 0.00 | 0.00 | 0.00 | 1002.1 | ||
| 20260502151527 | 0 | 0.0 | 0.0 | 0.00 | 0.00 | 0.00 | 1002.1 | ||
| 20260502151042 | 0 | 0.0 | 0.0 | 0.00 | 0.00 | 0.00 | 1002.2 | ||
| 20260502150533 | 0 | 0.0 | 0.0 | 0.00 | 0.00 | 0.00 | 1002.2 | ||
| 20260502130525 | 65 | 293 | 4.0 | 0.0 | 0.00 | 0.00 | 0.00 | 39 | 1001.8 |
| 20260502123523 | 65 | 279 | 4.0 | 0.0 | 0.00 | 0.00 | 0.00 | 37 | 1001.8 |
| 20260502123027 | 65 | 266 | 4.0 | 0.0 | 0.00 | 0.00 | 0.00 | 38 | 1001.8 |
| 20260502122524 | 65 | 268 | 5.0 | 0.0 | 0.00 | 0.00 | 0.00 | 38 | 1001.8 |
| 20260502122036 | 66 | 276 | 4.0 | 0.0 | 0.00 | 0.00 | 0.00 | 37 | 1001.8 |
| 20260502121540 | 66 | 272 | 4.0 | 0.0 | 0.00 | 0.00 | 0.00 | 38 | 1001.8 |
| 20260502121031 | 66 | 266 | 5.0 | 0.0 | 0.00 | 0.00 | 0.00 | 38 | 1001.7 |
| 20260502120529 | 66 | 254 | 5.0 | 0.0 | 0.00 | 0.00 | 0.00 | 37 | 1001.7 |
| 20260502115536 | 67 | 312 | 5.0 | 0.0 | 0.00 | 0.00 | 0.00 | 38 | 1001.7 |
| 20260502115039 | 68 | 216 | 4.0 | 0.0 | 0.00 | 0.00 | 0.00 | 38 | 1001.7 |
| 20260502114528 | 67 | 272 | 4.0 | 0.0 | 0.00 | 0.00 | 0.00 | 37 | 1001.7 |
| 20260502114037 | 67 | 242 | 3.0 | 0.0 | 0.00 | 0.00 | 0.00 | 39 | 1001.7 |
| 20260502113536 | 67 | 182 | 5.0 | 0.0 | 0.00 | 0.00 | 0.00 | 39 | 1001.7 |
| 20260502113022 | 67 | 300 | 5.0 | 0.0 | 0.00 | 0.00 | 0.00 | 41 | 1001.7 |
| 20260502112538 | 68 | 282 | 3.0 | 0.0 | 0.00 | 0.00 | 0.00 | 41 | 1001.8 |
| 20260502112027 | 68 | 309 | 4.0 | 0.0 | 0.00 | 0.00 | 0.00 | 40 | 1001.8 |
| 20260502111543 | 68 | 234 | 4.0 | 0.0 | 0.00 | 0.00 | 0.00 | 40 | 1001.8 |
| 20260502111027 | 67 | 217 | 5.0 | 0.0 | 0.00 | 0.00 | 0.00 | 39 | 1001.8 |
| 20260502110536 | 67 | 240 | 5.0 | 0.0 | 0.00 | 0.00 | 0.00 | 39 | 1001.8 |
| 20260502110032 | 67 | 258 | 6.0 | 0.0 | 0.00 | 0.00 | 0.00 | 38 | 1001.9 |
| 20260502105537 | 67 | 296 | 6.0 | 0.0 | 0.00 | 0.00 | 0.00 | 37 | 1001.8 |
| 20260502105025 | 67 | 303 | 5.0 | 0.0 | 0.00 | 0.00 | 0.00 | 39 | 1001.8 |
| 20260502104544 | 67 | 245 | 5.0 | 0.0 | 0.00 | 0.00 | 0.00 | 40 | 1001.8 |
| 20260502104055 | 66 | 257 | 4.0 | 0.0 | 0.00 | 0.00 | 0.00 | 41 | 1001.8 |
| 20260502103524 | 66 | 172 | 4.0 | 0.0 | 0.00 | 0.00 | 0.00 | 45 | 1001.8 |
| 20260502103046 | 66 | 258 | 3.0 | 0.0 | 0.00 | 0.00 | 0.00 | 43 | 1001.8 |
| 20260502102535 | 66 | 272 | 3.0 | 0.0 | 0.00 | 0.00 | 0.00 | 41 | 1001.8 |
| 20260502102024 | 66 | 230 | 4.0 | 0.0 | 0.00 | 0.00 | 0.00 | 43 | 1001.8 |
| 20260502101543 | 65 | 278 | 4.0 | 0.0 | 0.00 | 0.00 | 0.00 | 43 | 1001.8 |
| 20260502101028 | 65 | 255 | 5.0 | 0.0 | 0.00 | 0.00 | 0.00 | 44 | 1001.8 |
| 20260502100533 | 65 | 279 | 4.0 | 0.0 | 0.00 | 0.00 | 0.00 | 43 | 1001.8 |
| 20260502091532 | 65 | 216 | 5.0 | 0.0 | 0.00 | 0.00 | 0.00 | 47 | 1001.9 |
| 20260502091032 | 65 | 309 | 4.0 | 0.0 | 0.00 | 0.00 | 0.00 | 44 | 1001.7 |
| 20260502090520 | 66 | 265 | 3.0 | 0.0 | 0.00 | 0.00 | 0.00 | 41 | 1001.7 |
| 20260502071525 | 61 | 196 | 3.0 | 0.0 | 0.00 | 0.00 | 0.00 | 53 | 1001.9 |
| 20260502071034 | 61 | 187 | 3.0 | 0.0 | 0.00 | 0.00 | 0.00 | 51 | 1001.9 |
| 20260502070546 | 61 | 186 | 2.0 | 0.0 | 0.00 | 0.00 | 0.00 | 53 | 1001.9 |
| 20260502070057 | 60 | 183 | 2.0 | 0.0 | 0.00 | 0.00 | 0.00 | 54 | 1001.9 |
| 20260502065520 | 59 | 203 | 2.0 | 0.0 | 0.00 | 0.00 | 0.00 | 55 | 1002.1 |
| 20260502065050 | 59 | 170 | 1.0 | 0.0 | 0.00 | 0.00 | 0.00 | 56 | 1002.1 |
| 20260502064539 | 59 | 170 | 2.0 | 0.0 | 0.00 | 0.00 | 0.00 | 55 | 1002.1 |
| 20260502064027 | 59 | 170 | 3.0 | 0.0 | 0.00 | 0.00 | 0.00 | 55 | 1002.2 |
| 20260502063528 | 58 | 176 | 3.0 | 0.0 | 0.00 | 0.00 | 0.00 | 59 | 1002.2 |
| 20260502063033 | 57 | 168 | 2.0 | 0.0 | 0.00 | 0.00 | 0.00 | 58 | 1002.2 |
| 20260502062536 | 57 | 166 | 2.0 | 0.0 | 0.00 | 0.00 | 0.00 | 59 | 1002.4 |
| 20260502062032 | 56 | 161 | 2.0 | 0.0 | 0.00 | 0.00 | 0.00 | 63 | 1002.4 |
| 20260502061539 | 55 | 159 | 2.0 | 0.0 | 0.00 | 0.00 | 0.00 | 63 | 1002.4 |
| 20260502061022 | 54 | 170 | 1.0 | 0.0 | 0.00 | 0.00 | 0.00 | 64 | 1002.4 |
| 20260502060532 | 53 | 170 | 2.0 | 0.0 | 0.00 | 0.00 | 0.00 | 65 | 1002.4 |
| 20260502060048 | 53 | 175 | 2.0 | 0.0 | 0.00 | 0.00 | 0.00 | 64 | 1002.4 |
| 20260502055536 | 52 | 175 | 1.0 | 0.0 | 0.00 | 0.00 | 0.00 | 65 | 1002.4 |
| 20260502055030 | 52 | 175 | 0.0 | 0.0 | 0.00 | 0.00 | 0.00 | 65 | 1002.4 |
| 20260502054522 | 52 | 175 | 0.0 | 0.0 | 0.00 | 0.00 | 0.00 | 65 | 1002.4 |
| 20260502054025 | 52 | 175 | 0.0 | 0.0 | 0.00 | 0.00 | 0.00 | 66 | 1002.4 |
| 20260502053535 | 52 | 175 | 1.0 | 0.0 | 0.00 | 0.00 | 0.00 | 66 | 1002.4 |
| 20260502053026 | 52 | 178 | 2.0 | 0.0 | 0.00 | 0.00 | 0.00 | 66 | 1002.4 |
| 20260502052543 | 51 | 169 | 4.0 | 0.0 | 0.00 | 0.00 | 0.00 | 66 | 1002.1 |
| 20260502052049 | 51 | 166 | 6.0 | 0.0 | 0.00 | 0.00 | 0.00 | 66 | 1002.1 |
| 20260502051532 | 51 | 127 | 6.0 | 0.0 | 0.00 | 0.00 | 0.00 | 65 | 1002.1 |
| 20260502051021 | 52 | 154 | 7.0 | 0.0 | 0.00 | 0.00 | 0.00 | 66 | 1002.3 |
| 20260502050536 | 51 | 151 | 8.0 | 0.0 | 0.00 | 0.00 | 0.00 | 67 | 1002.3 |
| 20260502050024 | 46 | 152 | 6.0 | 0.0 | 0.00 | 0.00 | 0.00 | 75 | 1002.3 |
| 20260502045538 | 46 | 0.0 | 0.0 | 0.00 | 0.00 | 0.00 | 75 | 1002.4 | |
| 20260502045033 | 46 | 0.0 | 0.0 | 0.00 | 0.00 | 0.00 | 75 | 1002.4 | |
| 20260502044543 | 46 | 0.0 | 0.0 | 0.00 | 0.00 | 0.00 | 75 | 1002.4 | |
| 20260502044037 | 46 | 0.0 | 0.0 | 0.00 | 0.00 | 0.00 | 75 | 1002.9 | |
| 20260502043555 | 46 | 0.0 | 0.0 | 0.00 | 0.00 | 0.00 | 75 | 1002.9 | |
| 20260502043030 | 46 | 146 | 4.0 | 0.0 | 0.00 | 0.00 | 0.00 | 75 | 1002.9 |
| 20260502042527 | 46 | 134 | 3.0 | 0.0 | 0.00 | 0.00 | 0.00 | 75 | 1003.0 |
| 20260502042044 | 45 | 186 | 3.0 | 0.0 | 0.00 | 0.00 | 0.00 | 76 | 1003.0 |
| 20260502041528 | 44 | 114 | 3.0 | 0.0 | 0.00 | 0.00 | 0.00 | 75 | 1003.0 |
| 20260502041035 | 43 | 118 | 3.0 | 0.0 | 0.00 | 0.00 | 0.00 | 76 | 1003.4 |
| 20260502040523 | 43 | 125 | 3.0 | 0.0 | 0.00 | 0.00 | 0.00 | 77 | 1003.4 |
| 20260502040022 | 42 | 122 | 2.0 | 0.0 | 0.00 | 0.00 | 0.00 | 78 | 1003.4 |
| 20260502035545 | 41 | 107 | 2.0 | 0.0 | 0.00 | 0.00 | 0.00 | 79 | 1004.0 |
| 20260502035041 | 41 | 138 | 1.0 | 0.0 | 0.00 | 0.00 | 0.00 | 79 | 1004.0 |
| 20260502034529 | 41 | 138 | 1.0 | 0.0 | 0.00 | 0.00 | 0.00 | 80 | 1004.0 |
| 20260502034045 | 41 | 138 | 1.0 | 0.0 | 0.00 | 0.00 | 0.00 | 80 | 1004.2 |
| 20260502033600 | 40 | 137 | 1.0 | 0.0 | 0.00 | 0.00 | 0.00 | 81 | 1004.2 |
| 20260502033025 | 40 | 135 | 2.0 | 0.0 | 0.00 | 0.00 | 0.00 | 81 | 1004.2 |
| 20260502032556 | 40 | 127 | 2.0 | 0.0 | 0.00 | 0.00 | 0.00 | 82 | 1004.4 |
| 20260502032026 | 39 | 127 | 2.0 | 0.0 | 0.00 | 0.00 | 0.00 | 82 | 1004.4 |
| 20260502031542 | 39 | 118 | 2.0 | 0.0 | 0.00 | 0.00 | 0.00 | 83 | 1004.4 |
| 20260502031050 | 39 | 117 | 2.0 | 0.0 | 0.00 | 0.00 | 0.00 | 83 | 1004.6 |
| 20260502030538 | 38 | 120 | 1.0 | 0.0 | 0.00 | 0.00 | 0.00 | 82 | 1004.6 |
| 20260502030037 | 38 | 120 | 1.0 | 0.0 | 0.00 | 0.00 | 0.00 | 82 | 1004.6 |
| 20260502025524 | 38 | 120 | 1.0 | 0.0 | 0.00 | 0.00 | 0.00 | 81 | 1005.0 |
| 20260502025031 | 39 | 120 | 1.0 | 0.0 | 0.00 | 0.00 | 0.00 | 81 | 1005.0 |
| 20260502024528 | 39 | 121 | 1.0 | 0.0 | 0.00 | 0.00 | 0.00 | 81 | 1005.0 |
| 20260502024038 | 39 | 121 | 1.0 | 0.0 | 0.00 | 0.00 | 0.00 | 81 | 1005.3 |
| 20260502023526 | 39 | 121 | 1.0 | 0.0 | 0.00 | 0.00 | 0.00 | 81 | 1005.3 |
| 20260502023108 | 39 | 121 | 1.0 | 0.0 | 0.00 | 0.00 | 0.00 | 81 | 1005.3 |
| 20260502022532 | 39 | 121 | 1.0 | 0.0 | 0.00 | 0.00 | 0.00 | 81 | 1005.6 |
| 20260502022024 | 39 | 121 | 1.0 | 0.0 | 0.00 | 0.00 | 0.00 | 82 | 1005.6 |
| 20260502021536 | 39 | 122 | 1.0 | 0.0 | 0.00 | 0.00 | 0.00 | 82 | 1005.6 |
| 20260502021032 | 39 | 122 | 1.0 | 0.0 | 0.00 | 0.00 | 0.00 | 83 | 1005.8 |
| 20260502020520 | 38 | 124 | 1.0 | 0.0 | 0.00 | 0.00 | 0.00 | 83 | 1005.7 |
| 20260502020028 | 38 | 138 | 1.0 | 0.0 | 0.00 | 0.00 | 0.00 | 84 | 1005.8 |
| 20260502015541 | 38 | 138 | 1.0 | 0.0 | 0.00 | 0.00 | 0.00 | 84 | 1006.1 |
| 20260502015050 | 38 | 138 | 1.0 | 0.0 | 0.00 | 0.00 | 0.00 | 84 | 1006.1 |
| 20260502014550 | 38 | 202 | 1.0 | 0.0 | 0.00 | 0.00 | 0.00 | 84 | 1006.1 |
| 20260502014058 | 38 | 202 | 1.0 | 0.0 | 0.00 | 0.00 | 0.00 | 84 | 1006.5 |
| 20260502013537 | 38 | 202 | 1.0 | 0.0 | 0.00 | 0.00 | 0.00 | 83 | 1006.5 |
| 20260502013023 | 38 | 202 | 0.0 | 0.0 | 0.00 | 0.00 | 0.00 | 83 | 1006.5 |
| 20260502012531 | 38 | 202 | 0.0 | 0.0 | 0.00 | 0.00 | 0.00 | 83 | 1006.6 |
| 20260502012020 | 38 | 202 | 0.0 | 0.0 | 0.00 | 0.00 | 0.00 | 83 | 1006.6 |
| 20260502011538 | 38 | 202 | 0.0 | 0.0 | 0.00 | 0.00 | 0.00 | 83 | 1006.6 |
| 20260502011020 | 38 | 202 | 0.0 | 0.0 | 0.00 | 0.00 | 0.00 | 83 | 1006.8 |
| 20260502010600 | 38 | 202 | 1.0 | 0.0 | 0.00 | 0.00 | 0.00 | 83 | 1006.8 |
| 20260502010030 | 38 | 202 | 0.0 | 0.0 | 0.00 | 0.00 | 0.00 | 84 | 1006.8 |
| 20260502005538 | 38 | 202 | 0.0 | 0.0 | 0.00 | 0.00 | 0.00 | 84 | 1007.1 |
| 20260502005059 | 38 | 202 | 0.0 | 0.0 | 0.00 | 0.00 | 0.00 | 84 | 1007.1 |
| 20260502004546 | 38 | 202 | 0.0 | 0.0 | 0.00 | 0.00 | 0.00 | 84 | 1007.1 |
| 20260502004100 | 38 | 202 | 0.0 | 0.0 | 0.00 | 0.00 | 0.00 | 84 | 1007.1 |
| 20260502003527 | 38 | 202 | 0.0 | 0.0 | 0.00 | 0.00 | 0.00 | 84 | 1007.1 |
| 20260502003037 | 38 | 202 | 0.0 | 0.0 | 0.00 | 0.00 | 0.00 | 84 | 1007.1 |
| 20260502002534 | 38 | 202 | 0.0 | 0.0 | 0.00 | 0.00 | 0.00 | 84 | 1007.4 |
| 20260502002022 | 38 | 202 | 0.0 | 0.0 | 0.00 | 0.00 | 0.00 | 84 | 1007.4 |
| 20260502001527 | 38 | 202 | 0.0 | 0.0 | 0.00 | 0.00 | 0.00 | 84 | 1007.4 |
| 20260502001043 | 38 | 202 | 1.0 | 0.0 | 0.00 | 0.00 | 0.00 | 84 | 1007.6 |
| 20260502000530 | 38 | 202 | 0.0 | 0.0 | 0.00 | 0.00 | 0.00 | 84 | 1007.6 |
| 20260502000039 | 38 | 202 | 0.0 | 0.0 | 0.00 | 0.00 | 0.00 | 84 | 1007.6 |
| 20260501235536 | 38 | 202 | 0.0 | 0.0 | 0.00 | 0.00 | 0.00 | 84 | 1007.9 |
| 20260501235023 | 38 | 202 | 0.0 | 0.0 | 0.00 | 0.00 | 0.00 | 83 | 1007.9 |
| 20260501234602 | 38 | 202 | 0.0 | 0.0 | 0.00 | 0.00 | 0.00 | 83 | 1007.9 |
| 20260501234024 | 39 | 202 | 0.0 | 0.0 | 0.00 | 0.00 | 0.00 | 83 | 1008.0 |
| 20260501233600 | 39 | 202 | 0.0 | 0.0 | 0.00 | 0.00 | 0.00 | 84 | 1008.0 |
| 20260501233023 | 39 | 202 | 0.0 | 0.0 | 0.00 | 0.00 | 0.00 | 84 | 1008.0 |
| 20260501232545 | 39 | 202 | 0.0 | 0.0 | 0.00 | 0.00 | 0.00 | 83 | 1008.2 |
| 20260501232056 | 39 | 202 | 0.0 | 0.0 | 0.00 | 0.00 | 0.00 | 83 | 1008.2 |
| 20260501231522 | 39 | 202 | 0.0 | 0.0 | 0.00 | 0.00 | 0.00 | 83 | 1008.2 |
| 20260501231040 | 39 | 202 | 0.0 | 0.0 | 0.00 | 0.00 | 0.00 | 83 | 1008.2 |
| 20260501230546 | 39 | 202 | 0.0 | 0.0 | 0.00 | 0.00 | 0.00 | 83 | 1008.2 |
| 20260501230040 | 39 | 202 | 0.0 | 0.0 | 0.00 | 0.00 | 0.00 | 83 | 1008.2 |
| 20260501225527 | 39 | 202 | 0.0 | 0.0 | 0.00 | 0.00 | 0.00 | 83 | 1008.2 |
| 20260501225036 | 39 | 202 | 0.0 | 0.0 | 0.00 | 0.00 | 0.00 | 82 | 1008.2 |
| 20260501224524 | 39 | 202 | 0.0 | 0.0 | 0.00 | 0.00 | 0.00 | 82 | 1008.2 |
| 20260501224043 | 39 | 202 | 0.0 | 0.0 | 0.00 | 0.00 | 0.00 | 82 | 1008.2 |
| 20260501223528 | 39 | 202 | 0.0 | 0.0 | 0.00 | 0.00 | 0.00 | 81 | 1008.2 |
| 20260501223107 | 39 | 202 | 0.0 | 0.0 | 0.00 | 0.00 | 0.00 | 80 | 1008.2 |
| 20260501222550 | 40 | 202 | 0.0 | 0.0 | 0.00 | 0.00 | 0.00 | 80 | 1008.4 |
| 20260501222039 | 40 | 202 | 0.0 | 0.0 | 0.00 | 0.00 | 0.00 | 80 | 1008.4 |
| 20260501221537 | 40 | 202 | 0.0 | 0.0 | 0.00 | 0.00 | 0.00 | 79 | 1008.4 |
| 20260501221022 | 40 | 202 | 0.0 | 0.0 | 0.00 | 0.00 | 0.00 | 78 | 1008.4 |
| 20260501220522 | 41 | 202 | 0.0 | 0.0 | 0.00 | 0.00 | 0.00 | 78 | 1008.4 |
| 20260501220037 | 41 | 202 | 0.0 | 0.0 | 0.00 | 0.00 | 0.00 | 78 | 1008.4 |
| 20260501215520 | 41 | 202 | 0.0 | 0.0 | 0.00 | 0.00 | 0.00 | 77 | 1008.5 |
| 20260501215023 | 41 | 202 | 0.0 | 0.0 | 0.00 | 0.00 | 0.00 | 77 | 1008.5 |
| 20260501214538 | 41 | 202 | 0.0 | 0.0 | 0.00 | 0.00 | 0.00 | 76 | 1008.5 |
| 20260501214020 | 42 | 202 | 0.0 | 0.0 | 0.00 | 0.00 | 0.00 | 76 | 1008.7 |
| 20260501213537 | 42 | 202 | 0.0 | 0.0 | 0.00 | 0.00 | 0.00 | 75 | 1008.7 |
| 20260501213024 | 42 | 202 | 0.0 | 0.0 | 0.00 | 0.00 | 0.00 | 74 | 1008.7 |
| 20260501212526 | 42 | 202 | 0.0 | 0.0 | 0.00 | 0.00 | 0.00 | 73 | 1008.8 |
| 20260501212043 | 43 | 202 | 0.0 | 0.0 | 0.00 | 0.00 | 0.00 | 73 | 1008.8 |